Theta_e
348 346 345 344 343 343 343 345 346 347 347 347 348 347 347 347 348 349 353 354 352 353 355 351 352 351 347 349 347 344 344 341 339 339 336 337 338 341 339 339 339 339 340
349 347 346 345 343 343 343 345 347 349 347 346 346 347 347 347 347 347 352 354 354 354 350 352 352 351 351 351 349 347 342 340 339 342 338 344 342 341 342 339 340 340 340
351 349 347 345 344 344 344 346 348 350 349 345 344 345 347 347 347 351 352 353 355 355 354 352 353 352 354 349 350 350 347 343 339 343 343 350 348 343 340 342 341 342 341
350 349 348 346 344 345 345 347 348 350 350 347 342 345 347 346 345 348 348 352 354 355 354 354 354 352 351 353 350 351 347 346 342 340 341 342 343 352 348 340 341 341 341
349 350 348 347 346 345 347 347 350 351 349 349 344 345 347 345 345 344 352 351 355 355 355 354 354 355 352 353 354 354 350 343 347 342 341 343 342 342 345 350 342 342 340
350 349 347 347 347 346 347 348 352 353 352 351 345 347 345 345 342 344 350 349 351 353 354 355 356 355 353 355 354 354 353 351 346 346 344 344 344 345 343 344 345 343 343
351 351 350 349 349 348 348 350 353 356 354 353 349 349 348 345 347 348 346 346 346 347 351 355 356 355 355 355 356 356 354 353 350 350 345 343 343 343 343 343 343 343 343
351 351 351 349 351 350 350 350 354 357 356 353 351 349 349 345 342 345 347 346 345 345 354 357 355 357 357 355 356 355 354 353 353 353 351 348 344 345 344 343 344 346 345
353 352 351 350 351 351 352 351 354 357 356 352 352 352 350 345 343 341 347 352 347 346 347 353 355 354 354 356 355 353 355 356 357 354 354 353 348 347 346 345 345 345 349
353 353 353 351 350 351 352 352 353 356 357 353 354 353 354 353 348 349 353 350 350 348 350 349 351 354 353 354 355 352 355 355 354 352 354 354 351 348 349 348 346 345 345
351 352 353 352 351 351 351 352 352 354 355 355 355 352 352 352 352 354 353 353 353 353 352 353 352 352 352 354 356 354 354 355 354 356 354 355 355 353 348 348 348 347 347
347 351 352 353 353 352 351 352 352 352 354 354 356 354 353 352 352 352 354 355 356 355 355 356 354 352 352 355 356 356 351 356 356 356 355 355 355 357 356 355 352 349 349
343 350 351 353 353 353 353 352 352 351 352 355 356 355 353 354 352 354 354 355 356 357 356 357 357 354 353 354 357 357 356 354 354 355 356 356 356 357 356 356 352 351 354
344 346 351 351 352 354 356 355 352 351 350 352 353 355 356 355 354 353 355 355 357 358 358 358 358 356 355 354 354 356 357 356 355 355 356 356 357 358 360 359 359 358 357
340 344 348 355 359 356 358 357 354 353 351 352 352 355 357 355 355 354 356 357 358 358 359 359 358 357 356 354 353 355 357 357 357 356 356 356 357 357 359 359 359 358 359
337 339 344 347 354 358 359 359 357 355 353 354 353 353 356 356 356 355 357 358 359 360 360 360 360 358 356 352 351 352 354 355 357 358 358 357 357 357 357 358 358 357 360
337 340 338 344 346 349 356 357 359 356 356 357 355 356 358 358 358 358 359 360 360 361 362 361 361 360 358 353 351 349 350 353 355 355 358 358 353 355 358 360 359 357 355
344 345 346 344 342 345 348 353 356 359 359 358 361 357 360 361 360 361 361 361 361 361 362 363 362 361 361 357 354 351 349 350 352 355 356 357 356 355 356 358 357 359 361
349 349 348 348 347 344 344 351 354 361 360 362 361 361 361 362 363 363 363 363 363 363 363 363 363 363 362 358 355 355 352 352 354 355 354 355 357 358 357 354 356 357 357
347 349 350 350 351 350 347 346 353 357 362 362 362 362 362 363 364 364 364 365 364 364 362 363 363 364 364 362 359 356 356 354 355 356 357 356 355 356 357 358 358 360 360
348 349 352 352 353 353 351 350 351 357 359 361 362 364 363 365 365 365 365 366 365 362 364 363 363 363 362 364 361 358 357 355 353 353 350 351 353 353 353 352 355 357 357
340 346 357 357 356 355 357 357 355 355 358 361 362 364 365 364 363 366 366 366 366 365 366 365 365 362 364 362 363 362 359 357 356 352 346 347 348 349 352 353 354 356 355
335 339 354 358 350 351 356 360 353 359 360 361 362 363 365 365 363 366 367 366 366 363 363 364 362 360 359 362 361 360 360 359 357 355 352 351 353 361 360 359 360 359 357
327 331 344 361 360 359 352 352 363 360 363 364 363 364 365 366 364 364 365 363 362 363 360 360 358 356 353 352 356 359 358 358 358 357 355 356 359 361 363 362 362 360 361
325 327 333 342 346 351 356 360 360 361 362 364 365 364 363 363 364 365 363 363 357 358 360 355 352 351 352 351 353 357 362 358 356 357 357 357 359 361 362 362 363 363 360
324 325 328 332 333 335 337 341 354 362 362 364 363 364 361 363 364 356 352 356 353 354 355 356 357 360 357 358 360 362 366 364 360 357 360 362 362 362 363 362 360 357 355
Wind_Speed
27 31 31 30 29 27 26 26 24 22 21 19 18 16 16 13 11 11 6 7 6 6 4 5 5 4 6 2 5 4 2 3 7 8 7 5 4 5 3 1 4 5 5
25 29 32 32 32 31 29 27 26 23 23 20 19 16 15 14 11 10 10 9 8 7 6 5 7 4 6 5 3 3 7 6 4 6 7 2 0 7 2 1 2 1 2
26 25 31 34 33 33 31 30 27 26 25 21 19 15 15 11 12 12 10 11 10 9 6 7 1 4 3 8 6 5 7 1 3 5 5 2 1 3 5 5 4 3 4
24 25 29 33 35 34 33 30 30 27 27 24 23 21 18 17 15 13 14 14 12 11 9 8 6 5 4 6 7 6 6 3 8 4 4 1 5 1 1 6 3 3 4
26 28 30 37 37 36 35 33 31 29 28 28 23 24 21 19 17 15 14 9 12 12 11 10 9 7 7 6 4 4 7 6 5 10 7 4 5 4 2 5 10 6 3
25 26 35 35 36 37 36 35 34 32 30 30 30 24 25 20 18 17 15 14 14 14 13 11 10 9 6 6 8 6 7 7 5 3 3 8 4 9 4 1 3 3 4
24 24 26 32 37 38 38 36 36 34 35 32 31 26 24 26 15 17 18 17 17 18 19 15 12 11 10 8 8 7 7 8 7 6 7 6 4 4 7 6 4 2 0
24 25 26 34 36 38 38 37 37 36 34 34 33 33 27 25 26 21 19 19 18 15 19 17 15 13 12 10 10 9 10 9 9 9 10 7 8 6 5 6 6 5 7
25 25 26 34 36 37 39 41 38 39 37 37 33 32 32 30 26 26 27 18 18 15 15 15 15 16 14 13 13 12 11 9 10 11 11 10 9 7 7 6 6 7 5
25 23 24 33 37 40 40 39 37 39 39 38 37 35 33 32 29 26 23 24 19 19 10 18 17 17 17 16 16 14 14 12 12 11 12 11 11 9 8 9 8 8 9
19 19 22 33 37 37 38 41 39 36 38 39 38 37 36 33 33 27 27 24 21 18 19 15 17 19 19 19 18 18 12 16 14 13 11 12 13 11 10 10 11 11 11
18 20 21 29 34 36 38 39 41 42 41 41 38 39 37 36 34 33 29 26 26 23 20 20 19 20 21 21 21 20 18 17 16 16 16 15 15 16 17 13 12 12 11
23 20 21 22 29 35 35 38 39 42 41 39 40 37 37 37 36 35 33 30 28 26 25 24 22 22 23 22 22 22 21 19 19 19 18 18 17 17 17 15 16 15 16
20 21 21 21 27 31 34 34 38 40 39 39 40 39 39 39 38 35 34 33 31 29 27 26 26 24 24 24 24 23 23 22 21 20 20 20 20 20 19 18 18 17 17
19 18 20 17 20 26 30 34 35 36 39 38 38 39 40 40 38 37 35 34 33 32 30 28 27 27 25 25 26 24 23 23 22 21 22 23 23 22 21 20 19 19 19
8 9 16 15 19 25 28 33 36 35 39 37 40 39 39 38 39 38 37 35 33 33 31 29 28 29 28 27 28 28 25 24 23 22 23 23 22 24 27 27 29 27 20
11 8 11 16 18 24 27 29 37 38 36 35 37 35 37 39 38 39 37 37 35 32 31 30 29 30 31 29 29 31 29 24 25 24 23 23 22 24 24 23 24 25 26
2 7 11 13 16 23 29 31 31 36 34 36 34 37 36 38 37 37 38 37 36 35 32 31 31 31 32 33 33 31 32 29 28 24 24 25 25 22 19 19 21 21 21
9 12 17 18 17 18 21 27 30 33 35 33 36 39 39 37 36 37 37 36 34 33 33 32 32 32 32 33 36 33 28 29 29 28 29 28 26 25 26 28 27 28 28
14 16 18 19 20 23 22 25 32 31 35 37 41 38 38 37 38 38 37 35 34 34 34 33 32 32 32 33 34 35 30 28 28 28 30 32 34 30 29 29 27 27 25
12 16 20 22 24 25 27 25 29 33 39 37 32 34 37 38 37 35 34 34 34 33 32 31 30 30 33 32 35 38 34 31 27 28 27 27 29 30 29 32 33 30 26
12 14 19 22 25 27 27 27 26 36 29 32 32 33 34 34 32 32 32 31 30 29 27 28 28 30 30 33 34 34 37 34 31 28 25 24 25 26 24 24 25 23 23
14 18 22 19 16 20 26 24 30 26 30 30 32 31 31 31 29 31 30 29 28 28 28 27 29 28 29 30 33 32 35 36 35 28 22 24 21 10 13 16 18 18 15
18 20 18 12 16 9 18 24 23 26 27 28 29 28 30 29 28 29 29 27 28 27 26 26 25 26 26 26 25 30 36 35 34 36 28 24 18 15 14 12 13 15 15
20 20 17 18 21 22 19 0 19 23 25 27 27 28 29 29 27 24 26 27 16 22 27 25 25 24 24 27 27 25 22 24 29 22 22 22 21 22 20 18 17 14 17
18 20 20 22 23 23 25 27 11 17 25 26 26 28 29 29 27 20 13 13 10 10 15 10 6 6 12 16 24 27 20 22 21 22 20 19 18 16 14 11 11 15 14
Wind_Direction
184 180 188 186 184 184 184 187 186 175 181 181 184 187 178 192 187 190 148 177 174 182 181 139 141 200 177 41 99 140 233 154 99 153 135 102 169 158 185 132 115 102 115
182 183 191 188 189 187 187 189 188 179 188 191 193 193 198 186 197 199 175 194 185 175 181 166 154 156 163 164 185 238 193 137 179 282 190 118 232 186 150 122 225 123 69
183 187 190 191 192 188 191 188 191 186 190 194 193 201 201 201 201 194 183 190 190 184 173 172 154 147 211 169 184 216 277 60 185 342 36 22 254 172 163 168 222 87 227
188 187 190 196 194 192 193 190 192 191 192 199 191 193 197 201 194 208 200 176 190 190 187 180 179 188 213 133 184 184 251 252 175 168 186 306 37 23 324 144 161 207 218
188 186 193 195 195 195 193 195 191 195 195 196 202 192 206 202 195 207 165 182 181 196 197 190 190 195 197 190 190 154 218 222 287 197 171 199 175 197 289 273 152 155 198
188 189 192 193 198 196 195 194 191 195 196 193 204 200 202 215 209 207 184 195 192 198 206 198 200 199 202 180 188 193 201 237 253 315 242 149 260 230 237 60 181 85 137
189 190 187 193 195 195 196 193 190 195 196 196 199 203 203 216 225 197 213 204 209 198 194 202 203 204 205 189 200 197 204 212 220 240 232 263 266 350 334 329 29 308 116
186 189 193 194 194 195 193 195 190 194 198 198 198 201 202 204 214 212 213 215 216 212 177 188 206 215 198 207 194 208 209 203 215 226 240 268 223 234 233 266 324 293 231
184 188 191 195 195 197 194 195 193 193 196 201 199 198 202 207 207 219 215 218 222 219 193 196 208 212 215 209 204 219 211 214 206 213 228 238 254 236 239 242 245 274 301
182 188 190 195 197 199 199 197 198 195 196 199 199 199 199 205 211 209 211 216 221 224 218 204 214 217 217 217 211 211 208 209 218 226 211 231 244 244 241 251 247 245 261
176 197 189 194 198 199 199 199 199 198 200 201 201 201 201 204 208 208 209 218 220 220 221 221 215 218 218 216 212 228 222 200 221 241 233 229 249 249 245 239 247 255 256
208 190 195 195 193 198 199 199 200 201 201 203 202 201 199 201 205 209 210 209 214 218 220 219 217 217 216 213 212 218 222 219 214 223 233 237 238 237 256 264 264 261 269
214 192 201 191 195 195 199 201 201 203 203 202 202 201 202 200 204 204 209 211 212 214 217 216 215 214 216 219 216 218 225 227 224 231 232 234 236 241 244 246 255 257 249
218 195 199 192 196 195 194 199 202 205 203 200 203 202 202 202 202 205 205 208 210 211 214 215 212 212 217 220 221 219 222 228 230 233 237 237 236 237 237 244 252 260 266
219 216 203 191 185 195 194 194 204 202 203 198 201 202 202 203 202 204 205 207 209 211 212 214 213 211 216 221 220 222 221 225 232 235 234 237 238 240 240 244 246 251 256
279 259 198 220 195 190 195 193 199 204 204 199 201 200 198 201 201 201 202 204 207 210 211 213 214 213 218 224 223 219 224 227 228 232 237 241 245 243 243 246 249 252 262
220 242 245 221 219 202 196 202 198 204 202 206 199 200 196 199 201 200 199 203 205 208 211 212 214 215 218 224 225 223 223 228 230 233 237 240 243 241 240 249 258 260 260
276 272 266 252 235 218 204 206 202 200 209 205 200 200 198 199 200 201 202 202 202 206 209 212 214 216 219 222 225 227 228 230 237 237 235 238 245 249 248 248 252 252 252
278 264 260 260 261 243 224 194 206 194 207 203 205 199 201 198 199 201 203 203 202 204 208 212 214 215 221 225 227 227 227 233 237 239 241 243 247 248 250 253 258 263 265
268 269 265 258 247 240 235 209 197 201 201 208 204 203 201 201 201 201 202 203 204 206 208 213 215 217 221 224 227 228 226 233 236 240 243 245 245 247 250 251 250 255 261
286 281 271 258 246 240 225 229 204 203 205 204 201 201 202 203 203 202 201 203 205 209 211 215 215 217 220 223 228 228 221 229 235 240 245 245 250 251 251 250 248 254 262
330 323 296 261 245 231 225 217 226 205 195 195 199 200 202 205 203 202 200 202 205 209 210 212 213 219 221 225 227 230 229 226 232 242 246 249 253 252 250 249 251 260 263
349 351 320 292 240 220 219 211 222 189 185 189 193 197 196 198 203 197 199 197 202 210 214 213 221 224 223 227 230 231 234 235 230 236 245 248 264 240 228 237 251 256 250
8 360 353 10 16 326 201 211 197 178 179 183 189 190 190 193 201 196 202 204 202 207 213 218 217 226 231 228 224 227 231 234 236 236 242 247 254 247 245 250 246 239 239
15 6 9 28 27 28 25 213 178 179 181 186 189 184 188 190 194 196 202 202 200 209 214 216 219 224 226 228 228 223 209 219 222 221 228 235 239 244 245 245 239 237 247
18 6 20 31 23 23 21 18 14 193 190 190 185 184 187 179 189 171 156 164 168 170 200 203 243 269 247 233 221 212 201 209 206 204 219 222 230 232 235 224 223 239 250